Location: Владивосток
(43.1151°N, 131.8856°E)
Time: 20:02:31
(UTC+10:00)

CUBEBUG 2 - Pass Details

Date: 07 July 2022
Orbit: 584 x 693 km, 97.7° (Epoch: 07 August)

Event Time Altitude Azimuth Distance (km) Brightness Sun altitude
Rises 04:48:34 0° 4° (N) 2,853 ? -8.3°
Reaches altitude 10° 04:50:49 10° 357° (N) 1,959 ? -8.0°
Maximum altitude 04:54:46 38° 289° (WNW) 941 ? -7.4°
Drops below altitude 10° 04:58:47 10° 221° (SW) 2,002 ? -6.9°
Enters shadow 04:59:13 - 219° (SW) 2,169 ? -6.8°
